Tacoma Narrows, WA
on Saturday, February 23, 2013

Saturday
Previous Day Next Day
Daily Summary
 ActualAverageRecord
Temperature
Mean Temperature °F °F  
Max Temperature 48°F 47°F 57°F (2005)
Min Temperature 37°F 36°F 28°F (2011)
Degree Days
Heating Degree Days 22    
Moisture
Dew Point 33°F   
Average Humidity 72    
Maximum Humidity 87    
Minimum Humidity 50    
Precipitation
Precipitation 0.00 in in in ()
Wind
Wind Speed 11 mph   
Max Wind Speed 16 mph   
Max Gust Speed 24 mph   
Visibility 10 miles   
Events     
Averages and records for this station are not official NWS values.
Key: T is trace of precipitation, MM is missing value
Source: NWS Daily Summary
Seasonal Weather Averages
Time(PST)TemperatureDew PointHumidity Pressure Visibility Wind DirectionWind SpeedGust SpeedPrecipitationEvents Conditions
12:53 AM 37.9°F 33.1°F 83% 29.94 in 10.0 miles SSW 15.0 mph 24.2 mph N/A   Partly Cloudy
1:53 AM 37.9°F 34.0°F 86% 29.96 in 10.0 miles South 16.1 mph 24.2 mph N/A   Partly Cloudy
2:15 AM 37.4°F 33.8°F 87% 29.95 in 10.0 miles SSW 15.0 mph 24.2 mph N/A   Mostly Cloudy
2:53 AM 39.0°F 34.0°F 82% 29.97 in 10.0 miles South 16.1 mph 24.2 mph N/A   Overcast
3:28 AM 39.2°F 35.6°F 87% 29.97 in 10.0 miles South 11.5 mph 20.7 mph N/A   Overcast
3:39 AM 39.2°F 35.6°F 87% 29.97 in 10.0 miles South 10.4 mph 21.9 mph N/A   Overcast
3:53 AM 39.0°F 35.1°F 86% 29.98 in 10.0 miles SSW 10.4 mph - N/A   Overcast
4:37 AM 39.2°F 35.6°F 87% 29.99 in 10.0 miles SSW 8.1 mph - N/A   Overcast
4:53 AM 39.9°F 34.0°F 79% 30.01 in 10.0 miles SSW 9.2 mph 16.1 mph N/A   Overcast
5:53 AM 39.9°F 34.0°F 79% 30.03 in 10.0 miles SSW 4.6 mph - N/A   Mostly Cloudy
6:53 AM 39.9°F 34.0°F 79% 30.06 in 10.0 miles SSW 9.2 mph - N/A   Mostly Cloudy
7:37 AM 39.2°F 33.8°F 81% 30.08 in 10.0 miles SSW 5.8 mph - N/A   Scattered Clouds
7:53 AM 39.0°F 33.1°F 79% 30.10 in 10.0 miles SW 4.6 mph - N/A   Scattered Clouds
8:53 AM 42.1°F 35.1°F 76% 30.13 in 10.0 miles SSW 9.2 mph - N/A   Mostly Cloudy
9:53 AM 44.1°F 34.0°F 68% 30.16 in 10.0 miles South 10.4 mph - N/A   Scattered Clouds
10:53 AM 46.0°F 34.0°F 63% 30.19 in 10.0 miles SSW 8.1 mph - N/A   Mostly Cloudy
11:53 AM 46.9°F 34.0°F 61% 30.21 in 10.0 miles SW 6.9 mph - N/A   Mostly Cloudy
12:53 PM 48.0°F 32.0°F 54% 30.21 in 10.0 miles SSW 8.1 mph - N/A   Mostly Cloudy
1:53 PM 48.9°F 30.9°F 50% 30.22 in 10.0 miles SW 8.1 mph 18.4 mph N/A   Scattered Clouds
2:53 PM 48.0°F 32.0°F 54% 30.24 in 10.0 miles SW 8.1 mph 19.6 mph N/A   Scattered Clouds
3:53 PM 48.0°F 30.9°F 52% 30.26 in 10.0 miles WSW 9.2 mph 16.1 mph N/A   Scattered Clouds
4:53 PM 46.0°F 30.9°F 56% 30.28 in 10.0 miles SW 8.1 mph - N/A   Scattered Clouds
5:53 PM 43.0°F 32.0°F 65% 30.30 in 10.0 miles SW 4.6 mph - N/A   Clear
6:53 PM 42.1°F 30.9°F 65% 30.32 in 10.0 miles SW 5.8 mph - N/A   Clear
7:53 PM 42.1°F 32.0°F 67% 30.35 in 10.0 miles SSW 6.9 mph - N/A   Overcast
8:53 PM 41.0°F 32.0°F 70% 30.35 in 10.0 miles South 8.1 mph - N/A   Mostly Cloudy
9:53 PM 41.0°F 32.0°F 70% 30.37 in 10.0 miles SW 8.1 mph - N/A   Mostly Cloudy
10:53 PM 41.0°F 33.1°F 73% 30.38 in 10.0 miles SSW 8.1 mph - N/A   Overcast
11:53 PM 41.0°F 34.0°F 76% 30.38 in 10.0 miles South 9.2 mph - N/A   Overcast
Moon Phase
Feb. 23 Feb. 25 Mar. 04 Mar. 11 Mar. 19
Sunrise:07:00 AM (PST) Moon Rise:03:59 PM (PST)2/23
Sunset:05:47 PM (PST) Moon Set:05:31 AM (PST)2/23

Copyright © 2014 The Weather Underground, Inc.